owner,sensor,date,latitude,longitude,air_pressure(mBar),qcFlag 
TCOON,ioos:station:TCOON:068:1,2005-02-01T00:00:00Z,27.2970,-97.4049,1016.5,11111222 
TCOON,ioos:station:TCOON:068:1,2005-02-01T01:00:00Z,27.2970,-97.4049,1016.9,11111222 
TCOON,ioos:station:TCOON:068:1,2005-02-01T02:00:00Z,27.2970,-97.4049,1017.6,11111222 
TCOON,ioos:station:TCOON:068:1,2005-02-01T04:00:00Z,27.2970,-97.4049,1017.7,11111222 
TCOON,ioos:station:TCOON:068:1,2005-02-01T05:00:00Z,27.2970,-97.4049,1018.3,11111222 
TCOON,ioos:station:TCOON:068:1,2005-02-01T07:00:00Z,27.2970,-97.4049,1018.5,11111222 
TCOON,ioos:station:TCOON:068:1,2005-02-01T08:00:00Z,27.2970,-97.4049,1018.5,11111222 
TCOON,ioos:station:TCOON:068:1,2005-02-01T10:00:00Z,27.2970,-97.4049,1017.2,11111222 
TCOON,ioos:station:TCOON:068:1,2005-02-01T11:00:00Z,27.2970,-97.4049,1017.6,11111222 
TCOON,ioos:station:TCOON:068:1,2005-02-01T13:00:00Z,27.2970,-97.4049,1018.5,11111222 
TCOON,ioos:station:TCOON:068:1,2005-02-01T14:00:00Z,27.2970,-97.4049,1018.8,11111222 
TCOON,ioos:station:TCOON:068:1,2005-02-01T16:00:00Z,27.2970,-97.4049,1018.6,11111222 
TCOON,ioos:station:TCOON:068:1,2005-02-01T17:00:00Z,27.2970,-97.4049,1018.5,11111222 
TCOON,ioos:station:TCOON:068:1,2005-02-01T19:00:00Z,27.2970,-97.4049,1016.8,11111222 
TCOON,ioos:station:TCOON:068:1,2005-02-01T20:00:00Z,27.2970,-97.4049,1016.2,11111222 
TCOON,ioos:station:TCOON:068:1,2005-02-01T22:00:00Z,27.2970,-97.4049,1016.5,11111222 
TCOON,ioos:station:TCOON:068:1,2005-02-01T23:00:00Z,27.2970,-97.4049,1017.5,11111222 
TCOON,ioos:station:TCOON:068:1,2005-02-02T02:00:00Z,27.2970,-97.4049,1019.8,11111222 
TCOON,ioos:station:TCOON:068:1,2005-02-02T03:00:00Z,27.2970,-97.4049,1020.2,11111222 
TCOON,ioos:station:TCOON:068:1,2005-02-02T04:00:00Z,27.2970,-97.4049,1020.4,11111222 
TCOON,ioos:station:TCOON:068:1,2005-02-02T05:00:00Z,27.2970,-97.4049,1020.5,11111222 
TCOON,ioos:station:TCOON:068:1,2005-02-02T06:00:00Z,27.2970,-97.4049,1020.7,11111222 
TCOON,ioos:station:TCOON:068:1,2005-02-02T07:00:00Z,27.2970,-97.4049,1020.9,11111222 
TCOON,ioos:station:TCOON:068:1,2005-02-02T08:00:00Z,27.2970,-97.4049,1020.8,11111222 
TCOON,ioos:station:TCOON:068:1,2005-02-02T09:00:00Z,27.2970,-97.4049,1021.1,11111222 
TCOON,ioos:station:TCOON:068:1,2005-02-02T10:00:00Z,27.2970,-97.4049,1021.3,11111222 
TCOON,ioos:station:TCOON:068:1,2005-02-02T11:00:00Z,27.2970,-97.4049,1021.1,11111222 
TCOON,ioos:station:TCOON:068:1,2005-02-02T13:00:00Z,27.2970,-97.4049,1023.0,11111222 
TCOON,ioos:station:TCOON:068:1,2005-02-02T14:00:00Z,27.2970,-97.4049,1023.6,11111222 
TCOON,ioos:station:TCOON:068:1,2005-02-02T16:00:00Z,27.2970,-97.4049,1024.8,11111222 
TCOON,ioos:station:TCOON:068:1,2005-02-02T17:00:00Z,27.2970,-97.4049,1025.1,11111222 
TCOON,ioos:station:TCOON:068:1,2005-02-02T19:00:00Z,27.2970,-97.4049,1023.8,11111222 
TCOON,ioos:station:TCOON:068:1,2005-02-02T20:00:00Z,27.2970,-97.4049,1023.5,11111222 
TCOON,ioos:station:TCOON:068:1,2005-02-02T21:00:00Z,27.2970,-97.4049,1022.5,11111222 
TCOON,ioos:station:TCOON:068:1,2005-02-02T22:00:00Z,27.2970,-97.4049,1023.1,11111222 
TCOON,ioos:station:TCOON:068:1,2005-02-02T23:00:00Z,27.2970,-97.4049,1023.5,11111222 
TCOON,ioos:station:TCOON:068:1,2005-02-03T00:00:00Z,27.2970,-97.4049,1024.8,11111222 
TCOON,ioos:station:TCOON:068:1,2005-02-03T01:00:00Z,27.2970,-97.4049,1024.8,11111222 
TCOON,ioos:station:TCOON:068:1,2005-02-03T02:00:00Z,27.2970,-97.4049,1025.4,11111222 
TCOON,ioos:station:TCOON:068:1,2005-02-03T04:00:00Z,27.2970,-97.4049,1027.0,11111222 
TCOON,ioos:station:TCOON:068:1,2005-02-03T05:00:00Z,27.2970,-97.4049,1027.2,11111222 
TCOON,ioos:station:TCOON:068:1,2005-02-03T07:00:00Z,27.2970,-97.4049,1026.7,11111222 
TCOON,ioos:station:TCOON:068:1,2005-02-03T08:00:00Z,27.2970,-97.4049,1027.0,11111222 
TCOON,ioos:station:TCOON:068:1,2005-02-03T09:00:00Z,27.2970,-97.4049,1027.2,11111222 
TCOON,ioos:station:TCOON:068:1,2005-02-03T10:00:00Z,27.2970,-97.4049,1027.0,11111222 
TCOON,ioos:station:TCOON:068:1,2005-02-03T11:00:00Z,27.2970,-97.4049,1026.9,11111222 
TCOON,ioos:station:TCOON:068:1,2005-02-03T13:00:00Z,27.2970,-97.4049,1028.5,11111222 
TCOON,ioos:station:TCOON:068:1,2005-02-03T14:00:00Z,27.2970,-97.4049,1029.4,11111222 
TCOON,ioos:station:TCOON:068:1,2005-02-03T15:00:00Z,27.2970,-97.4049,1029.5,11111222 
TCOON,ioos:station:TCOON:068:1,2005-02-03T16:00:00Z,27.2970,-97.4049,1030.0,11111222 
TCOON,ioos:station:TCOON:068:1,2005-02-03T17:00:00Z,27.2970,-97.4049,1030.4,11111222 
TCOON,ioos:station:TCOON:068:1,2005-02-03T19:00:00Z,27.2970,-97.4049,1028.9,11111222 
TCOON,ioos:station:TCOON:068:1,2005-02-03T20:00:00Z,27.2970,-97.4049,1028.1,11111222 
TCOON,ioos:station:TCOON:068:1,2005-02-03T21:00:00Z,27.2970,-97.4049,1027.5,11111222 
TCOON,ioos:station:TCOON:068:1,2005-02-03T22:00:00Z,27.2970,-97.4049,1027.1,11111222 
TCOON,ioos:station:TCOON:068:1,2005-02-03T23:00:00Z,27.2970,-97.4049,1027.3,11111222 
TCOON,ioos:station:TCOON:068:1,2005-02-04T01:00:00Z,27.2970,-97.4049,1028.3,11111222 
TCOON,ioos:station:TCOON:068:1,2005-02-04T02:00:00Z,27.2970,-97.4049,1029.2,11111222 
TCOON,ioos:station:TCOON:068:1,2005-02-04T04:00:00Z,27.2970,-97.4049,1029.2,11111222 
TCOON,ioos:station:TCOON:068:1,2005-02-04T05:00:00Z,27.2970,-97.4049,1029.2,11111222 
TCOON,ioos:station:TCOON:068:1,2005-02-04T06:00:00Z,27.2970,-97.4049,1028.9,11111222 
TCOON,ioos:station:TCOON:068:1,2005-02-04T07:00:00Z,27.2970,-97.4049,1028.4,11111222 
TCOON,ioos:station:TCOON:068:1,2005-02-04T08:00:00Z,27.2970,-97.4049,1028.3,11111222 
TCOON,ioos:station:TCOON:068:1,2005-02-04T09:00:00Z,27.2970,-97.4049,1028.3,11111222 
TCOON,ioos:station:TCOON:068:1,2005-02-04T10:00:00Z,27.2970,-97.4049,1027.6,11111222 
TCOON,ioos:station:TCOON:068:1,2005-02-04T11:00:00Z,27.2970,-97.4049,1027.5,11111222 
TCOON,ioos:station:TCOON:068:1,2005-02-04T12:00:00Z,27.2970,-97.4049,1027.6,11111222 
TCOON,ioos:station:TCOON:068:1,2005-02-04T13:00:00Z,27.2970,-97.4049,1028.4,11111222 
TCOON,ioos:station:TCOON:068:1,2005-02-04T14:00:00Z,27.2970,-97.4049,1028.7,11111222 
TCOON,ioos:station:TCOON:068:1,2005-02-04T16:00:00Z,27.2970,-97.4049,1029.2,11111222 
TCOON,ioos:station:TCOON:068:1,2005-02-04T17:00:00Z,27.2970,-97.4049,1028.7,11111222 
TCOON,ioos:station:TCOON:068:1,2005-02-04T19:00:00Z,27.2970,-97.4049,1027.8,11111222 
TCOON,ioos:station:TCOON:068:1,2005-02-04T20:00:00Z,27.2970,-97.4049,1027.6,11111222 
TCOON,ioos:station:TCOON:068:1,2005-02-04T21:00:00Z,27.2970,-97.4049,1026.2,11111222 
TCOON,ioos:station:TCOON:068:1,2005-02-04T22:00:00Z,27.2970,-97.4049,1025.2,11111222 
TCOON,ioos:station:TCOON:068:1,2005-02-04T23:00:00Z,27.2970,-97.4049,1025.5,11111222 
TCOON,ioos:station:TCOON:068:1,2005-02-05T00:00:00Z,27.2970,-97.4049,1025.5,11111222 
TCOON,ioos:station:TCOON:068:1,2005-02-05T01:00:00Z,27.2970,-97.4049,1026.4,11111222 
TCOON,ioos:station:TCOON:068:1,2005-02-05T02:00:00Z,27.2970,-97.4049,1026.6,11111222 
TCOON,ioos:station:TCOON:068:1,2005-02-05T03:00:00Z,27.2970,-97.4049,1025.7,11111222 
TCOON,ioos:station:TCOON:068:1,2005-02-05T04:00:00Z,27.2970,-97.4049,1025.2,11111222 
TCOON,ioos:station:TCOON:068:1,2005-02-05T05:00:00Z,27.2970,-97.4049,1024.8,11111222 
TCOON,ioos:station:TCOON:068:1,2005-02-05T06:00:00Z,27.2970,-97.4049,1024.5,11111222 
TCOON,ioos:station:TCOON:068:1,2005-02-05T07:00:00Z,27.2970,-97.4049,1023.5,11111222 
TCOON,ioos:station:TCOON:068:1,2005-02-05T08:00:00Z,27.2970,-97.4049,1023.4,11111222 
TCOON,ioos:station:TCOON:068:1,2005-02-05T09:00:00Z,27.2970,-97.4049,1022.9,11111222 
TCOON,ioos:station:TCOON:068:1,2005-02-05T10:00:00Z,27.2970,-97.4049,1021.5,11111222 
TCOON,ioos:station:TCOON:068:1,2005-02-05T11:00:00Z,27.2970,-97.4049,1021.8,11111222 
TCOON,ioos:station:TCOON:068:1,2005-02-05T13:00:00Z,27.2970,-97.4049,1022.1,11111222 
TCOON,ioos:station:TCOON:068:1,2005-02-05T14:00:00Z,27.2970,-97.4049,1022.2,11111222 
TCOON,ioos:station:TCOON:068:1,2005-02-05T15:00:00Z,27.2970,-97.4049,1022.0,11111222 
TCOON,ioos:station:TCOON:068:1,2005-02-05T16:00:00Z,27.2970,-97.4049,1022.0,11111222 
TCOON,ioos:station:TCOON:068:1,2005-02-05T17:00:00Z,27.2970,-97.4049,1022.3,11111222 
TCOON,ioos:station:TCOON:068:1,2005-02-05T19:00:00Z,27.2970,-97.4049,1019.4,11111222 
TCOON,ioos:station:TCOON:068:1,2005-02-05T20:00:00Z,27.2970,-97.4049,1017.5,11111222 
TCOON,ioos:station:TCOON:068:1,2005-02-05T22:00:00Z,27.2970,-97.4049,1016.3,11111222 
TCOON,ioos:station:TCOON:068:1,2005-02-05T23:00:00Z,27.2970,-97.4049,1016.2,11111222 
TCOON,ioos:station:TCOON:068:1,2005-02-06T00:00:00Z,27.2970,-97.4049,1015.6,11111222 
TCOON,ioos:station:TCOON:068:1,2005-02-06T01:00:00Z,27.2970,-97.4049,1015.6,11111222 
TCOON,ioos:station:TCOON:068:1,2005-02-06T02:00:00Z,27.2970,-97.4049,1015.3,11111222 
TCOON,ioos:station:TCOON:068:1,2005-02-06T03:00:00Z,27.2970,-97.4049,1014.7,11111222 
TCOON,ioos:station:TCOON:068:1,2005-02-06T04:00:00Z,27.2970,-97.4049,1014.1,11111222 
TCOON,ioos:station:TCOON:068:1,2005-02-06T05:00:00Z,27.2970,-97.4049,1014.1,11111222 
TCOON,ioos:station:TCOON:068:1,2005-02-06T07:00:00Z,27.2970,-97.4049,1012.4,11111222 
TCOON,ioos:station:TCOON:068:1,2005-02-06T08:00:00Z,27.2970,-97.4049,1012.1,11111222 
TCOON,ioos:station:TCOON:068:1,2005-02-06T10:00:00Z,27.2970,-97.4049,1011.7,11111222 
TCOON,ioos:station:TCOON:068:1,2005-02-06T11:00:00Z,27.2970,-97.4049,1011.8,11111222 
TCOON,ioos:station:TCOON:068:1,2005-02-06T13:00:00Z,27.2970,-97.4049,1013.0,11111222 
TCOON,ioos:station:TCOON:068:1,2005-02-06T14:00:00Z,27.2970,-97.4049,1013.3,11111222 
TCOON,ioos:station:TCOON:068:1,2005-02-06T16:00:00Z,27.2970,-97.4049,1014.4,11111222 
TCOON,ioos:station:TCOON:068:1,2005-02-06T17:00:00Z,27.2970,-97.4049,1015.1,11111222 
TCOON,ioos:station:TCOON:068:1,2005-02-06T19:00:00Z,27.2970,-97.4049,1013.5,11111222 
TCOON,ioos:station:TCOON:068:1,2005-02-06T20:00:00Z,27.2970,-97.4049,1012.6,11111222 
TCOON,ioos:station:TCOON:068:1,2005-02-06T22:00:00Z,27.2970,-97.4049,1011.7,11111222 
TCOON,ioos:station:TCOON:068:1,2005-02-06T23:00:00Z,27.2970,-97.4049,1012.2,11111222 
TCOON,ioos:station:TCOON:068:1,2005-02-07T01:00:00Z,27.2970,-97.4049,1013.0,11111222 
TCOON,ioos:station:TCOON:068:1,2005-02-07T02:00:00Z,27.2970,-97.4049,1013.7,11111222 
TCOON,ioos:station:TCOON:068:1,2005-02-07T04:00:00Z,27.2970,-97.4049,1014.5,11111222 
TCOON,ioos:station:TCOON:068:1,2005-02-07T05:00:00Z,27.2970,-97.4049,1014.9,11111222 
TCOON,ioos:station:TCOON:068:1,2005-02-07T07:00:00Z,27.2970,-97.4049,1014.8,11111222 
TCOON,ioos:station:TCOON:068:1,2005-02-07T08:00:00Z,27.2970,-97.4049,1014.3,11111222 
TCOON,ioos:station:TCOON:068:1,2005-02-07T10:00:00Z,27.2970,-97.4049,1013.9,11111222 
TCOON,ioos:station:TCOON:068:1,2005-02-07T11:00:00Z,27.2970,-97.4049,1013.8,11111222 
TCOON,ioos:station:TCOON:068:1,2005-02-07T13:00:00Z,27.2970,-97.4049,1014.7,11111222 
TCOON,ioos:station:TCOON:068:1,2005-02-07T14:00:00Z,27.2970,-97.4049,1015.3,11111222 
TCOON,ioos:station:TCOON:068:1,2005-02-07T16:00:00Z,27.2970,-97.4049,1016.2,11111222 
TCOON,ioos:station:TCOON:068:1,2005-02-07T17:00:00Z,27.2970,-97.4049,1016.7,11111222 
TCOON,ioos:station:TCOON:068:1,2005-02-07T19:00:00Z,27.2970,-97.4049,1014.8,11111222 
TCOON,ioos:station:TCOON:068:1,2005-02-07T20:00:00Z,27.2970,-97.4049,1013.6,11111222 
TCOON,ioos:station:TCOON:068:1,2005-02-07T22:00:00Z,27.2970,-97.4049,1013.3,11111222 
TCOON,ioos:station:TCOON:068:1,2005-02-07T23:00:00Z,27.2970,-97.4049,1013.0,11111222 
TCOON,ioos:station:TCOON:068:1,2005-02-08T01:00:00Z,27.2970,-97.4049,1014.3,11111222 
TCOON,ioos:station:TCOON:068:1,2005-02-08T02:00:00Z,27.2970,-97.4049,1014.7,11111222 
TCOON,ioos:station:TCOON:068:1,2005-02-08T04:00:00Z,27.2970,-97.4049,1015.1,11111222 
TCOON,ioos:station:TCOON:068:1,2005-02-08T05:00:00Z,27.2970,-97.4049,1015.2,11111222 
TCOON,ioos:station:TCOON:068:1,2005-02-08T07:00:00Z,27.2970,-97.4049,1014.9,11111222 
TCOON,ioos:station:TCOON:068:1,2005-02-08T08:00:00Z,27.2970,-97.4049,1014.4,11111222 
TCOON,ioos:station:TCOON:068:1,2005-02-08T10:00:00Z,27.2970,-97.4049,1013.8,11111222 
TCOON,ioos:station:TCOON:068:1,2005-02-08T11:00:00Z,27.2970,-97.4049,1013.4,11111222 
TCOON,ioos:station:TCOON:068:1,2005-02-08T12:00:00Z,27.2970,-97.4049,1013.6,11111222 
TCOON,ioos:station:TCOON:068:1,2005-02-08T13:00:00Z,27.2970,-97.4049,1013.3,11111222 
TCOON,ioos:station:TCOON:068:1,2005-02-08T14:00:00Z,27.2970,-97.4049,1014.0,11111222 
TCOON,ioos:station:TCOON:068:1,2005-02-08T16:00:00Z,27.2970,-97.4049,1015.6,11111222 
TCOON,ioos:station:TCOON:068:1,2005-02-08T17:00:00Z,27.2970,-97.4049,1014.9,11111222 
TCOON,ioos:station:TCOON:068:1,2005-02-08T19:00:00Z,27.2970,-97.4049,1013.0,11111222 
TCOON,ioos:station:TCOON:068:1,2005-02-08T20:00:00Z,27.2970,-97.4049,1012.2,11111222 
TCOON,ioos:station:TCOON:068:1,2005-02-08T22:00:00Z,27.2970,-97.4049,1011.0,11111222 
TCOON,ioos:station:TCOON:068:1,2005-02-08T23:00:00Z,27.2970,-97.4049,1010.8,11111222 
TCOON,ioos:station:TCOON:068:1,2005-02-09T01:00:00Z,27.2970,-97.4049,1011.4,11111222 
TCOON,ioos:station:TCOON:068:1,2005-02-09T02:00:00Z,27.2970,-97.4049,1012.7,11111222 
TCOON,ioos:station:TCOON:068:1,2005-02-09T04:00:00Z,27.2970,-97.4049,1013.1,11111222 
TCOON,ioos:station:TCOON:068:1,2005-02-09T05:00:00Z,27.2970,-97.4049,1013.4,11111222 
TCOON,ioos:station:TCOON:068:1,2005-02-09T07:00:00Z,27.2970,-97.4049,1013.1,11111222 
TCOON,ioos:station:TCOON:068:1,2005-02-09T08:00:00Z,27.2970,-97.4049,1012.9,11111222 
TCOON,ioos:station:TCOON:068:1,2005-02-09T10:00:00Z,27.2970,-97.4049,1012.7,11111222 
TCOON,ioos:station:TCOON:068:1,2005-02-09T11:00:00Z,27.2970,-97.4049,1012.4,11111222 
TCOON,ioos:station:TCOON:068:1,2005-02-09T13:00:00Z,27.2970,-97.4049,1014.2,11111222 
TCOON,ioos:station:TCOON:068:1,2005-02-09T14:00:00Z,27.2970,-97.4049,1014.1,11111222 
TCOON,ioos:station:TCOON:068:1,2005-02-09T16:00:00Z,27.2970,-97.4049,1016.0,11111222 
TCOON,ioos:station:TCOON:068:1,2005-02-09T17:00:00Z,27.2970,-97.4049,1016.3,11111222 
TCOON,ioos:station:TCOON:068:1,2005-02-09T19:00:00Z,27.2970,-97.4049,1016.3,11111222 
TCOON,ioos:station:TCOON:068:1,2005-02-09T20:00:00Z,27.2970,-97.4049,1016.3,11111222 
TCOON,ioos:station:TCOON:068:1,2005-02-09T22:00:00Z,27.2970,-97.4049,1017.0,11111222 
TCOON,ioos:station:TCOON:068:1,2005-02-09T23:00:00Z,27.2970,-97.4049,1017.8,11111222 
TCOON,ioos:station:TCOON:068:1,2005-02-10T00:00:00Z,27.2970,-97.4049,1018.2,11111222 
TCOON,ioos:station:TCOON:068:1,2005-02-10T01:00:00Z,27.2970,-97.4049,1019.4,11111222 
TCOON,ioos:station:TCOON:068:1,2005-02-10T02:00:00Z,27.2970,-97.4049,1020.2,11111222 
TCOON,ioos:station:TCOON:068:1,2005-02-10T04:00:00Z,27.2970,-97.4049,1023.0,11111222 
TCOON,ioos:station:TCOON:068:1,2005-02-10T05:00:00Z,27.2970,-97.4049,1023.8,11111222 
TCOON,ioos:station:TCOON:068:1,2005-02-10T07:00:00Z,27.2970,-97.4049,1023.9,11111222 
TCOON,ioos:station:TCOON:068:1,2005-02-10T08:00:00Z,27.2970,-97.4049,1023.8,11111222 
TCOON,ioos:station:TCOON:068:1,2005-02-10T09:00:00Z,27.2970,-97.4049,1024.1,11111222 
TCOON,ioos:station:TCOON:068:1,2005-02-10T10:00:00Z,27.2970,-97.4049,1024.7,11111222 
TCOON,ioos:station:TCOON:068:1,2005-02-10T11:00:00Z,27.2970,-97.4049,1024.7,11111222 
TCOON,ioos:station:TCOON:068:1,2005-02-10T12:00:00Z,27.2970,-97.4049,1025.8,11111222 
TCOON,ioos:station:TCOON:068:1,2005-02-10T13:00:00Z,27.2970,-97.4049,1026.5,11111222 
TCOON,ioos:station:TCOON:068:1,2005-02-10T14:00:00Z,27.2970,-97.4049,1027.4,11111222 
TCOON,ioos:station:TCOON:068:1,2005-02-10T15:00:00Z,27.2970,-97.4049,1028.3,11111222 
TCOON,ioos:station:TCOON:068:1,2005-02-10T16:00:00Z,27.2970,-97.4049,1029.0,11111222 
TCOON,ioos:station:TCOON:068:1,2005-02-10T17:00:00Z,27.2970,-97.4049,1029.2,11111222 
TCOON,ioos:station:TCOON:068:1,2005-02-10T19:00:00Z,27.2970,-97.4049,1028.2,11111222 
TCOON,ioos:station:TCOON:068:1,2005-02-10T20:00:00Z,27.2970,-97.4049,1026.9,11111222 
TCOON,ioos:station:TCOON:068:1,2005-02-10T22:00:00Z,27.2970,-97.4049,1026.3,11111222 
TCOON,ioos:station:TCOON:068:1,2005-02-10T23:00:00Z,27.2970,-97.4049,1026.2,11111222 
TCOON,ioos:station:TCOON:068:1,2005-02-11T01:00:00Z,27.2970,-97.4049,1026.7,11111222 
TCOON,ioos:station:TCOON:068:1,2005-02-11T02:00:00Z,27.2970,-97.4049,1027.6,11111222 
TCOON,ioos:station:TCOON:068:1,2005-02-11T04:00:00Z,27.2970,-97.4049,1028.2,11111222 
TCOON,ioos:station:TCOON:068:1,2005-02-11T05:00:00Z,27.2970,-97.4049,1027.8,11111222 
TCOON,ioos:station:TCOON:068:1,2005-02-11T06:00:00Z,27.2970,-97.4049,1027.7,11111222 
TCOON,ioos:station:TCOON:068:1,2005-02-11T07:00:00Z,27.2970,-97.4049,1028.0,11111222 
TCOON,ioos:station:TCOON:068:1,2005-02-11T08:00:00Z,27.2970,-97.4049,1027.6,11111222 
TCOON,ioos:station:TCOON:068:1,2005-02-11T10:00:00Z,27.2970,-97.4049,1027.5,11111222 
TCOON,ioos:station:TCOON:068:1,2005-02-11T11:00:00Z,27.2970,-97.4049,1027.1,11111222 
TCOON,ioos:station:TCOON:068:1,2005-02-11T12:00:00Z,27.2970,-97.4049,1027.1,11111222 
TCOON,ioos:station:TCOON:068:1,2005-02-11T13:00:00Z,27.2970,-97.4049,1027.7,11111222 
TCOON,ioos:station:TCOON:068:1,2005-02-11T14:00:00Z,27.2970,-97.4049,1027.8,11111222 
TCOON,ioos:station:TCOON:068:1,2005-02-11T16:00:00Z,27.2970,-97.4049,1028.8,11111222 
TCOON,ioos:station:TCOON:068:1,2005-02-11T17:00:00Z,27.2970,-97.4049,1028.2,11111222 
TCOON,ioos:station:TCOON:068:1,2005-02-11T19:00:00Z,27.2970,-97.4049,1026.8,11111222 
TCOON,ioos:station:TCOON:068:1,2005-02-11T20:00:00Z,27.2970,-97.4049,1025.5,11111222 
TCOON,ioos:station:TCOON:068:1,2005-02-11T21:00:00Z,27.2970,-97.4049,1025.0,11111222 
TCOON,ioos:station:TCOON:068:1,2005-02-11T22:00:00Z,27.2970,-97.4049,1024.2,11111222 
TCOON,ioos:station:TCOON:068:1,2005-02-11T23:00:00Z,27.2970,-97.4049,1024.4,11111222 
TCOON,ioos:station:TCOON:068:1,2005-02-12T01:00:00Z,27.2970,-97.4049,1023.9,11111222 
TCOON,ioos:station:TCOON:068:1,2005-02-12T02:00:00Z,27.2970,-97.4049,1024.3,11111222 
TCOON,ioos:station:TCOON:068:1,2005-02-12T04:00:00Z,27.2970,-97.4049,1023.9,11111222 
TCOON,ioos:station:TCOON:068:1,2005-02-12T05:00:00Z,27.2970,-97.4049,1023.3,11111222 
TCOON,ioos:station:TCOON:068:1,2005-02-12T06:00:00Z,27.2970,-97.4049,1023.0,11111222 
TCOON,ioos:station:TCOON:068:1,2005-02-12T07:00:00Z,27.2970,-97.4049,1021.9,11111222 
TCOON,ioos:station:TCOON:068:1,2005-02-12T08:00:00Z,27.2970,-97.4049,1021.1,11111222 
TCOON,ioos:station:TCOON:068:1,2005-02-12T10:00:00Z,27.2970,-97.4049,1019.4,11111222 
TCOON,ioos:station:TCOON:068:1,2005-02-12T11:00:00Z,27.2970,-97.4049,1018.7,11111222 
TCOON,ioos:station:TCOON:068:1,2005-02-12T13:00:00Z,27.2970,-97.4049,1018.7,11111222 
TCOON,ioos:station:TCOON:068:1,2005-02-12T14:00:00Z,27.2970,-97.4049,1018.8,11111222 
TCOON,ioos:station:TCOON:068:1,2005-02-12T16:00:00Z,27.2970,-97.4049,1019.0,11111222 
TCOON,ioos:station:TCOON:068:1,2005-02-12T17:00:00Z,27.2970,-97.4049,1018.8,11111222 
TCOON,ioos:station:TCOON:068:1,2005-02-12T19:00:00Z,27.2970,-97.4049,1016.6,11111222 
TCOON,ioos:station:TCOON:068:1,2005-02-12T20:00:00Z,27.2970,-97.4049,1014.8,11111222 
TCOON,ioos:station:TCOON:068:1,2005-02-12T21:00:00Z,27.2970,-97.4049,1013.7,11111222 
TCOON,ioos:station:TCOON:068:1,2005-02-12T22:00:00Z,27.2970,-97.4049,1012.8,11111222 
TCOON,ioos:station:TCOON:068:1,2005-02-12T23:00:00Z,27.2970,-97.4049,1012.1,11111222 
TCOON,ioos:station:TCOON:068:1,2005-02-13T01:00:00Z,27.2970,-97.4049,1012.6,11111222 
TCOON,ioos:station:TCOON:068:1,2005-02-13T02:00:00Z,27.2970,-97.4049,1013.0,11111222 
TCOON,ioos:station:TCOON:068:1,2005-02-13T03:00:00Z,27.2970,-97.4049,1013.7,11111222 
TCOON,ioos:station:TCOON:068:1,2005-02-13T04:00:00Z,27.2970,-97.4049,1013.5,11111222 
TCOON,ioos:station:TCOON:068:1,2005-02-13T05:00:00Z,27.2970,-97.4049,1013.6,11111222 
TCOON,ioos:station:TCOON:068:1,2005-02-13T07:00:00Z,27.2970,-97.4049,1010.9,11111222 
TCOON,ioos:station:TCOON:068:1,2005-02-13T08:00:00Z,27.2970,-97.4049,1011.1,11111222 
TCOON,ioos:station:TCOON:068:1,2005-02-13T10:00:00Z,27.2970,-97.4049,1008.7,11111222 
TCOON,ioos:station:TCOON:068:1,2005-02-13T11:00:00Z,27.2970,-97.4049,1009.5,11111222 
TCOON,ioos:station:TCOON:068:1,2005-02-13T13:00:00Z,27.2970,-97.4049,1009.9,11111222 
TCOON,ioos:station:TCOON:068:1,2005-02-13T14:00:00Z,27.2970,-97.4049,1010.9,11111222 
TCOON,ioos:station:TCOON:068:1,2005-02-13T16:00:00Z,27.2970,-97.4049,1011.6,11111222 
TCOON,ioos:station:TCOON:068:1,2005-02-13T17:00:00Z,27.2970,-97.4049,1011.3,11111222 
TCOON,ioos:station:TCOON:068:1,2005-02-13T19:00:00Z,27.2970,-97.4049,1010.0,11111222 
TCOON,ioos:station:TCOON:068:1,2005-02-13T20:00:00Z,27.2970,-97.4049,1008.9,11111222 
TCOON,ioos:station:TCOON:068:1,2005-02-13T22:00:00Z,27.2970,-97.4049,1008.2,11111222 
TCOON,ioos:station:TCOON:068:1,2005-02-13T23:00:00Z,27.2970,-97.4049,1008.3,11111222 
TCOON,ioos:station:TCOON:068:1,2005-02-14T00:00:00Z,27.2970,-97.4049,1009.2,11111222 
TCOON,ioos:station:TCOON:068:1,2005-02-14T01:00:00Z,27.2970,-97.4049,1009.9,11111222 
TCOON,ioos:station:TCOON:068:1,2005-02-14T02:00:00Z,27.2970,-97.4049,1010.6,11111222 
TCOON,ioos:station:TCOON:068:1,2005-02-14T03:00:00Z,27.2970,-97.4049,1011.5,11111222 
TCOON,ioos:station:TCOON:068:1,2005-02-14T04:00:00Z,27.2970,-97.4049,1012.1,11111222 
TCOON,ioos:station:TCOON:068:1,2005-02-14T05:00:00Z,27.2970,-97.4049,1012.8,11111222 
TCOON,ioos:station:TCOON:068:1,2005-02-14T06:00:00Z,27.2970,-97.4049,1013.0,11111222 
TCOON,ioos:station:TCOON:068:1,2005-02-14T07:00:00Z,27.2970,-97.4049,1013.0,11111222 
TCOON,ioos:station:TCOON:068:1,2005-02-14T08:00:00Z,27.2970,-97.4049,1013.4,11111222 
TCOON,ioos:station:TCOON:068:1,2005-02-14T10:00:00Z,27.2970,-97.4049,1013.8,11111222 
TCOON,ioos:station:TCOON:068:1,2005-02-14T11:00:00Z,27.2970,-97.4049,1013.9,11111222 
TCOON,ioos:station:TCOON:068:1,2005-02-14T13:00:00Z,27.2970,-97.4049,1014.7,11111222 
TCOON,ioos:station:TCOON:068:1,2005-02-14T14:00:00Z,27.2970,-97.4049,1015.6,11111222 
TCOON,ioos:station:TCOON:068:1,2005-02-14T15:00:00Z,27.2970,-97.4049,1016.4,11111222 
TCOON,ioos:station:TCOON:068:1,2005-02-14T16:00:00Z,27.2970,-97.4049,1016.8,11111222 
TCOON,ioos:station:TCOON:068:1,2005-02-14T17:00:00Z,27.2970,-97.4049,1016.7,11111222 
TCOON,ioos:station:TCOON:068:1,2005-02-14T18:00:00Z,27.2970,-97.4049,1016.3,11111222 
TCOON,ioos:station:TCOON:068:1,2005-02-14T19:00:00Z,27.2970,-97.4049,1015.5,11111222 
TCOON,ioos:station:TCOON:068:1,2005-02-14T20:00:00Z,27.2970,-97.4049,1014.0,11111222 
TCOON,ioos:station:TCOON:068:1,2005-02-14T21:00:00Z,27.2970,-97.4049,1013.2,11111222 
TCOON,ioos:station:TCOON:068:1,2005-02-14T22:00:00Z,27.2970,-97.4049,1012.7,11111222 
TCOON,ioos:station:TCOON:068:1,2005-02-14T23:00:00Z,27.2970,-97.4049,1012.6,11111222 
TCOON,ioos:station:TCOON:068:1,2005-02-15T01:00:00Z,27.2970,-97.4049,1013.1,11111222 
TCOON,ioos:station:TCOON:068:1,2005-02-15T02:00:00Z,27.2970,-97.4049,1013.6,11111222 
TCOON,ioos:station:TCOON:068:1,2005-02-15T03:00:00Z,27.2970,-97.4049,1014.2,11111222 
TCOON,ioos:station:TCOON:068:1,2005-02-15T04:00:00Z,27.2970,-97.4049,1014.7,11111222 
TCOON,ioos:station:TCOON:068:1,2005-02-15T05:00:00Z,27.2970,-97.4049,1015.0,11111222 
TCOON,ioos:station:TCOON:068:1,2005-02-15T06:00:00Z,27.2970,-97.4049,1014.8,11111222 
TCOON,ioos:station:TCOON:068:1,2005-02-15T07:00:00Z,27.2970,-97.4049,1014.4,11111222 
TCOON,ioos:station:TCOON:068:1,2005-02-15T08:00:00Z,27.2970,-97.4049,1013.7,11111222 
TCOON,ioos:station:TCOON:068:1,2005-02-15T10:00:00Z,27.2970,-97.4049,1013.1,11111222 
TCOON,ioos:station:TCOON:068:1,2005-02-15T11:00:00Z,27.2970,-97.4049,1013.6,11111222 
TCOON,ioos:station:TCOON:068:1,2005-02-15T12:00:00Z,27.2970,-97.4049,1014.1,11111222 
TCOON,ioos:station:TCOON:068:1,2005-02-15T13:00:00Z,27.2970,-97.4049,1014.4,11111222 
TCOON,ioos:station:TCOON:068:1,2005-02-15T14:00:00Z,27.2970,-97.4049,1015.2,11111222 
TCOON,ioos:station:TCOON:068:1,2005-02-15T16:00:00Z,27.2970,-97.4049,1015.9,11111222 
TCOON,ioos:station:TCOON:068:1,2005-02-15T17:00:00Z,27.2970,-97.4049,1015.7,11111222 
TCOON,ioos:station:TCOON:068:1,2005-02-15T18:00:00Z,27.2970,-97.4049,1015.4,11111222 
TCOON,ioos:station:TCOON:068:1,2005-02-15T19:00:00Z,27.2970,-97.4049,1014.1,11111222 
TCOON,ioos:station:TCOON:068:1,2005-02-15T20:00:00Z,27.2970,-97.4049,1013.1,11111222 